Tracking 29892 objects as of 21-Nov-2024
HD Live streaming from Space Station
objects crossing your sky now

ATLAS CENTAUR R/B

Track ATLAS CENTAUR R/B now!
10-day predictions


NORAD ID: 3598
Int'l Code: 1968-110B
Perigee: 677.2 km
Apogee: 745.5 km
Inclination: 35.0 °
Period: 98.9 minutes
Semi major axis: 7082 km
RCS: 13.279 m2 (large)
Launch date: December 7, 1968
Source: United States (US)
Launch site: AIR FORCE EASTERN TEST RANGE (AFETR)

Note: This is a ROCKET BODY
Your satellite tracking list
Your tracking list is empty




NASA's NSSDC Master Catalog

Two Line Element Set (TLE):
1 03598U 68110B   24324.73925275  .00001118  00000-0  24789-3 0  9990
2 03598  34.9909 128.7638 0048243 287.0391  72.5021 14.56580800940790
Source of the keplerian elements: AFSPC